Location: Christian Reformed Church
(43.0975°N, 93.8113°W)
Time: 11:54:16
(UTC+00:00)

Okean 1-7 Rocket - Pass Details

Date: 23 March 2026
Orbit: 609 x 643 km, 82.5° (Epoch: 14 April)

Event Time Altitude Azimuth Distance (km) Brightness Sun altitude
Rises 00:53:56 0° 225° (SW) 2,940 7.7 -5.2°
Reaches altitude 10° 00:56:45 10° 244° (WSW) 2,033 7.2 -5.7°
Maximum altitude 00:59:58 19° 289° (WNW) 1,526 6.9 -6.3°
Drops below altitude 10° 01:03:12 10° 335° (NNW) 2,034 6.7 -6.8°
Sets 01:06:02 0° 354° (N) 2,942 7.2 -7.4°
